TVS4104 LKPR-GVBA

Flight info

Callsign TVS4104
Flight time 6h 31m
Altitude 36000
Route DOBEN DCT RUDAP P31 DOSEL DCT EBEDA DCT BADVI DCT BERAS DCT OLPIX/N0454F350 DCT EKPEB DCT GEKBA DCT VAMTU DCT KOLON DCT GANGU DCT PADKO DCT DIVKO DCT NILDU DCT NENDA DCT BCN M985 RODRA/N0453F370 M985 MGA DCT BRIKE DCT VJF L82 RUNAX UL82 IBALU UN857 TERTO DCT ANARU/N0456F360 DCT LIMAL N873 IPERA B623 DIMKI DIMKI1P
Aircraft B38M/M-SDE3FGHIJ1M3RWXYZ/LB1

Departure

Time 2026-04-07 11:37
Airport Václav Havel Airport Prague (LKPR)

Arrival

Time 2026-04-07 18:09
Airport Aristides Pereira International Airport (GVBA)
Time Latitude Longitude Altitude Speed Heading
2026-04-07 10:41 50.10786 14.26589 1176 ft 0 kts 34°
2026-04-07 10:44 50.10785 14.26589 1176 ft 0 kts 34°
2026-04-07 11:21 50.10775 14.26577 1173 ft 3 kts 36°
2026-04-07 11:22 50.10758 14.26558 1173 ft 3 kts 33°
2026-04-07 11:22 50.10742 14.26545 1174 ft 3 kts
2026-04-07 11:22 50.10733 14.26548 1176 ft 1 kts 306°
2026-04-07 11:22 50.10734 14.26545 1174 ft 2 kts 304°
2026-04-07 11:23 50.10745 14.26521 1173 ft 3 kts 304°
2026-04-07 11:23 50.10756 14.26495 1174 ft 3 kts 304°
2026-04-07 11:23 50.10768 14.26470 1176 ft 3 kts 304°
2026-04-07 11:23 50.10779 14.26444 1176 ft 3 kts 304°
2026-04-07 11:24 50.10791 14.26418 1175 ft 3 kts 304°
2026-04-07 11:24 50.10802 14.26392 1176 ft 3 kts 304°
2026-04-07 11:24 50.10811 14.26371 1173 ft 1 kts 304°
2026-04-07 11:24 50.10812 14.26370 1173 ft 2 kts 304°
2026-04-07 11:28 50.10816 14.26362 1174 ft 2 kts 304°
2026-04-07 11:28 50.10829 14.26327 1174 ft 5 kts 289°
2026-04-07 11:29 50.10814 14.26267 1173 ft 7 kts 224°
2026-04-07 11:29 50.10765 14.26213 1174 ft 10 kts 213°
2026-04-07 11:29 50.10699 14.26144 1175 ft 13 kts 213°
2026-04-07 11:29 50.10616 14.26061 1174 ft 15 kts 211°
2026-04-07 11:30 50.10528 14.25981 1176 ft 13 kts 192°
2026-04-07 11:30 50.10461 14.26056 1177 ft 13 kts 126°
2026-04-07 11:30 50.10406 14.26171 1173 ft 14 kts 127°
2026-04-07 11:30 50.10348 14.26291 1176 ft 14 kts 127°
2026-04-07 11:31 50.10288 14.26416 1179 ft 15 kts 127°
2026-04-07 11:31 50.10224 14.26546 1179 ft 15 kts 127°
2026-04-07 11:31 50.10160 14.26679 1181 ft 15 kts 127°
2026-04-07 11:31 50.10102 14.26799 1187 ft 12 kts 127°
2026-04-07 11:32 50.10061 14.26885 1192 ft 8 kts 127°
2026-04-07 11:32 50.10036 14.26936 1195 ft 5 kts 127°
2026-04-07 11:32 50.10015 14.26980 1197 ft 7 kts 127°
2026-04-07 11:32 50.09978 14.27056 1200 ft 11 kts 127°
2026-04-07 11:33 50.09921 14.27172 1203 ft 16 kts 128°
2026-04-07 11:33 50.09841 14.27330 1205 ft 20 kts 133°
2026-04-07 11:33 50.09741 14.27482 1207 ft 20 kts 135°
2026-04-07 11:33 50.09644 14.27632 1211 ft 19 kts 135°
2026-04-07 11:34 50.09554 14.27772 1214 ft 18 kts 135°
2026-04-07 11:34 50.09470 14.27903 1217 ft 16 kts 136°
2026-04-07 11:34 50.09386 14.28030 1217 ft 17 kts 136°
2026-04-07 11:34 50.09298 14.28165 1217 ft 18 kts 136°
2026-04-07 11:35 50.09227 14.28261 1214 ft 13 kts 147°
2026-04-07 11:35 50.09138 14.28253 1214 ft 14 kts 209°
2026-04-07 11:35 50.09065 14.28172 1211 ft 5 kts 217°
2026-04-07 11:35 50.09057 14.28146 1211 ft 3 kts 281°
2026-04-07 11:36 50.09071 14.28116 1210 ft 5 kts 307°
2026-04-07 11:36 50.09138 14.27974 1213 ft 44 kts 307°
2026-04-07 11:36 50.09467 14.27293 1209 ft 112 kts 307°
2026-04-07 11:36 50.10050 14.26083 1205 ft 165 kts 307°
2026-04-07 11:37 50.10782 14.24600 1752 ft 178 kts 309°
2026-04-07 11:37 50.11570 14.23000 2427 ft 194 kts 307°
2026-04-07 11:37 50.12382 14.21311 3316 ft 192 kts 307°
2026-04-07 11:37 50.13170 14.19646 4085 ft 186 kts 308°
2026-04-07 11:38 50.13944 14.18027 4696 ft 191 kts 309°
2026-04-07 11:38 50.14643 14.16138 4732 ft 216 kts 285°
2026-04-07 11:38 50.14533 14.13748 5204 ft 236 kts 253°
2026-04-07 11:38 50.13518 14.11561 5652 ft 264 kts 219°
2026-04-07 11:39 50.11885 14.10117 6154 ft 281 kts 214°
2026-04-07 11:39 50.10216 14.08484 6878 ft 284 kts 216°
2026-04-07 11:39 50.08532 14.06830 7602 ft 288 kts 217°
2026-04-07 11:39 50.06820 14.05158 8322 ft 293 kts 217°
2026-04-07 11:40 50.05087 14.03470 9046 ft 296 kts 218°
2026-04-07 11:40 50.03328 14.01762 9806 ft 299 kts 218°
2026-04-07 11:40 50.01551 14.00040 10471 ft 303 kts 218°
2026-04-07 11:40 49.99720 13.98256 10819 ft 320 kts 218°
2026-04-07 11:41 49.97774 13.96341 11050 ft 340 kts 218°
2026-04-07 11:41 49.95721 13.94318 11259 ft 359 kts 217°
2026-04-07 11:41 49.93574 13.92212 11610 ft 371 kts 217°
2026-04-07 11:41 49.91380 13.90080 12280 ft 373 kts 217°
2026-04-07 11:42 49.89153 13.87937 12829 ft 380 kts 217°
2026-04-07 11:42 49.86898 13.85769 13471 ft 383 kts 217°
2026-04-07 11:42 49.84620 13.83589 14079 ft 387 kts 217°
2026-04-07 11:42 49.82313 13.81378 14632 ft 391 kts 217°
2026-04-07 11:43 49.79993 13.79160 15270 ft 392 kts 217°
2026-04-07 11:43 49.77666 13.76939 15855 ft 395 kts 217°
2026-04-07 11:43 49.75315 13.74697 16430 ft 398 kts 217°
2026-04-07 11:43 49.72951 13.72444 16990 ft 401 kts 217°
2026-04-07 11:44 49.70567 13.70178 17561 ft 404 kts 217°
2026-04-07 11:44 49.68166 13.67897 18098 ft 407 kts 217°
2026-04-07 11:44 49.65743 13.65598 18632 ft 410 kts 217°
2026-04-07 11:44 49.63305 13.63288 19087 ft 413 kts 217°
2026-04-07 11:45 49.60852 13.60966 19505 ft 416 kts 216°
2026-04-07 11:45 49.58379 13.58630 19975 ft 418 kts 216°
2026-04-07 11:45 49.55889 13.56279 20407 ft 421 kts 216°
2026-04-07 11:45 49.53383 13.53918 20836 ft 423 kts 216°
2026-04-07 11:46 49.50868 13.51549 21263 ft 426 kts 216°
2026-04-07 11:46 49.48331 13.49163 21698 ft 429 kts 216°
2026-04-07 11:46 49.45774 13.46762 22107 ft 432 kts 216°
2026-04-07 11:46 49.43202 13.44350 22544 ft 434 kts 216°
2026-04-07 11:47 49.40615 13.41927 22967 ft 437 kts 215°
2026-04-07 11:47 49.38010 13.39492 23413 ft 439 kts 215°
2026-04-07 11:47 49.35395 13.37049 23827 ft 442 kts 215°
2026-04-07 11:47 49.32754 13.34584 24200 ft 445 kts 215°
2026-04-07 11:48 49.30102 13.32113 24581 ft 447 kts 215°
2026-04-07 11:48 49.27435 13.29632 24956 ft 449 kts 215°
2026-04-07 11:48 49.24752 13.27153 25323 ft 452 kts 213°
2026-04-07 11:48 49.21923 13.24980 25704 ft 456 kts 210°
2026-04-07 11:49 49.19077 13.22836 26054 ft 458 kts 210°
2026-04-07 11:49 49.16219 13.20655 26423 ft 459 kts 210°
2026-04-07 11:49 49.13358 13.18460 26742 ft 462 kts 210°
2026-04-07 11:49 49.10503 13.16328 27090 ft 464 kts 210°
2026-04-07 11:50 49.07596 13.14167 27426 ft 466 kts 210°
2026-04-07 11:50 49.04679 13.11997 27777 ft 468 kts 210°
2026-04-07 11:50 49.01752 13.09820 28094 ft 470 kts 210°
2026-04-07 11:50 48.98807 13.07633 28395 ft 472 kts 209°
2026-04-07 11:51 48.95850 13.05440 28731 ft 474 kts 209°
2026-04-07 11:51 48.92881 13.03240 29035 ft 476 kts 209°
2026-04-07 11:51 48.89896 13.01032 29348 ft 478 kts 209°
2026-04-07 11:51 48.86895 12.98814 29650 ft 480 kts 209°
2026-04-07 11:52 48.83886 12.96594 29940 ft 482 kts 209°
2026-04-07 11:52 48.80865 12.94367 30222 ft 484 kts 209°
2026-04-07 11:52 48.77832 12.92137 30534 ft 484 kts 209°
2026-04-07 11:52 48.74811 12.89897 30873 ft 483 kts 211°
2026-04-07 11:53 48.72087 12.87019 31208 ft 474 kts 226°
2026-04-07 11:53 48.69654 12.83674 31534 ft 474 kts 225°
2026-04-07 11:53 48.67200 12.80340 31829 ft 473 kts 226°
2026-04-07 11:53 48.64763 12.76994 32166 ft 472 kts 226°
2026-04-07 11:54 48.62340 12.73650 32492 ft 472 kts 226°
2026-04-07 11:54 48.59923 12.70302 32803 ft 471 kts 226°
2026-04-07 11:54 48.57511 12.66952 33133 ft 470 kts 226°
2026-04-07 11:54 48.55105 12.63615 33446 ft 470 kts 226°
2026-04-07 11:55 48.52702 12.60287 33765 ft 469 kts 226°
2026-04-07 11:55 48.50295 12.56959 34075 ft 468 kts 226°
2026-04-07 11:55 48.47899 12.53651 34373 ft 468 kts 226°
2026-04-07 11:55 48.45502 12.50343 34611 ft 467 kts 226°
2026-04-07 11:56 48.43053 12.47115 34854 ft 468 kts 223°
2026-04-07 11:56 48.40598 12.43997 35084 ft 467 kts 224°
2026-04-07 11:56 48.38121 12.40829 35270 ft 468 kts 224°
2026-04-07 11:56 48.35640 12.37654 35309 ft 468 kts 224°
2026-04-07 11:57 48.30695 12.31333 35303 ft 466 kts 224°
2026-04-07 11:57 48.25718 12.24988 35296 ft 466 kts 223°
2026-04-07 11:58 48.20769 12.18695 35296 ft 466 kts 223°
2026-04-07 11:58 48.15598 12.12960 35262 ft 471 kts 206°
2026-04-07 11:59 48.09335 12.09925 35266 ft 476 kts 199°
2026-04-07 11:59 48.02996 12.07073 35289 ft 476 kts 199°
2026-04-07 12:00 47.96669 12.04161 35282 ft 475 kts 199°
2026-04-07 12:00 47.90350 12.01271 35281 ft 475 kts 199°
2026-04-07 12:01 47.84025 11.98387 35275 ft 475 kts 199°
2026-04-07 12:01 47.77702 11.95511 35275 ft 475 kts 199°
2026-04-07 12:02 47.71385 11.92645 35267 ft 475 kts 199°
2026-04-07 12:02 47.65063 11.89784 35258 ft 475 kts 199°
2026-04-07 12:03 47.58738 11.86929 35256 ft 475 kts 198°
2026-04-07 12:03 47.52420 11.84084 35255 ft 475 kts 198°
2026-04-07 12:04 47.46100 11.81245 35251 ft 474 kts 198°
2026-04-07 12:04 47.39788 11.78418 35230 ft 474 kts 198°
2026-04-07 12:05 47.33471 11.75595 35236 ft 474 kts 198°
2026-04-07 12:05 47.27164 11.72784 35235 ft 474 kts 198°
2026-04-07 12:06 47.20845 11.69974 35229 ft 474 kts 198°
2026-04-07 12:06 47.14518 11.67167 35221 ft 477 kts 198°
2026-04-07 12:07 47.08137 11.64345 35229 ft 479 kts 198°
2026-04-07 12:07 47.01775 11.61536 35215 ft 478 kts 198°
2026-04-07 12:08 46.95406 11.58734 35229 ft 474 kts 198°
2026-04-07 12:08 46.89111 11.55968 35211 ft 472 kts 198°
2026-04-07 12:09 46.82811 11.53208 35221 ft 473 kts 198°
2026-04-07 12:09 46.76556 11.50476 35201 ft 471 kts 197°
2026-04-07 12:10 46.70369 11.47401 35172 ft 468 kts 211°
2026-04-07 12:10 46.67758 11.44659 35177 ft 463 kts 226°
2026-04-07 12:10 46.65537 11.41260 35191 ft 465 kts 229°
2026-04-07 12:11 46.61165 11.34332 35192 ft 465 kts 229°
2026-04-07 12:11 46.56842 11.27348 35157 ft 464 kts 229°
2026-04-07 12:12 46.52528 11.20361 35246 ft 464 kts 229°
2026-04-07 12:12 46.48210 11.13384 35276 ft 464 kts 229°
2026-04-07 12:13 46.43890 11.06420 35283 ft 465 kts 229°
2026-04-07 12:13 46.39561 10.99460 35318 ft 465 kts 229°
2026-04-07 12:14 46.35221 10.92499 35314 ft 465 kts 229°
2026-04-07 12:14 46.31615 10.86729 35316 ft 465 kts 229°
2026-04-07 12:15 46.27265 10.79777 35313 ft 467 kts 229°
2026-04-07 12:15 46.22894 10.72817 35312 ft 467 kts 229°
2026-04-07 12:16 46.18524 10.65885 35309 ft 467 kts 229°
2026-04-07 12:16 46.14152 10.58960 35302 ft 467 kts 229°
2026-04-07 12:17 46.09774 10.52036 35297 ft 467 kts 229°
2026-04-07 12:17 46.05383 10.45113 35278 ft 470 kts 229°
2026-04-07 12:18 46.00981 10.38177 35263 ft 468 kts 228°
2026-04-07 12:18 45.96578 10.31237 35258 ft 469 kts 227°
2026-04-07 12:19 45.92161 10.24384 35242 ft 467 kts 228°
2026-04-07 12:19 45.87760 10.17523 35243 ft 467 kts 227°
2026-04-07 12:20 45.83354 10.10663 35225 ft 467 kts 227°
2026-04-07 12:20 45.78946 10.03824 35227 ft 467 kts 227°
2026-04-07 12:21 45.74538 9.96997 35218 ft 467 kts 227°
2026-04-07 12:21 45.70153 9.90215 35207 ft 465 kts 227°
2026-04-07 12:22 45.65719 9.83394 35211 ft 465 kts 227°
2026-04-07 12:22 45.61346 9.76675 35210 ft 465 kts 227°
2026-04-07 12:23 45.56936 9.69913 35211 ft 465 kts 227°
2026-04-07 12:23 45.52522 9.63162 35291 ft 465 kts 226°
2026-04-07 12:24 45.48106 9.56427 35291 ft 465 kts 226°
2026-04-07 12:24 45.43687 9.49701 35282 ft 465 kts 226°
2026-04-07 12:25 45.39266 9.42991 35266 ft 465 kts 226°
2026-04-07 12:25 45.34836 9.36281 35209 ft 465 kts 226°
2026-04-07 12:26 45.30405 9.29589 35212 ft 465 kts 226°
2026-04-07 12:26 45.25966 9.22899 35206 ft 465 kts 226°
2026-04-07 12:27 45.21525 9.16223 35201 ft 465 kts 226°
2026-04-07 12:27 45.17072 9.09544 35209 ft 466 kts 226°
2026-04-07 12:28 45.12610 9.02870 35214 ft 466 kts 226°
2026-04-07 12:29 45.05916 8.92886 35208 ft 466 kts 225°
2026-04-07 12:29 45.01443 8.86236 35211 ft 467 kts 225°
2026-04-07 12:30 44.96958 8.79583 35206 ft 468 kts 225°
2026-04-07 12:30 44.92495 8.72979 35211 ft 468 kts 225°
2026-04-07 12:31 44.87997 8.66340 35219 ft 468 kts 225°
2026-04-07 12:31 44.83494 8.59708 35217 ft 470 kts 225°
2026-04-07 12:32 44.78960 8.53047 35234 ft 471 kts 224°
2026-04-07 12:32 44.74424 8.46402 35235 ft 471 kts 224°
2026-04-07 12:33 44.69882 8.39759 35232 ft 471 kts 224°
2026-04-07 12:33 44.65330 8.33122 35241 ft 471 kts 224°
2026-04-07 12:34 44.60781 8.26505 35236 ft 471 kts 224°
2026-04-07 12:34 44.56227 8.19895 35229 ft 471 kts 224°
2026-04-07 12:35 44.51672 8.13300 35217 ft 471 kts 224°
2026-04-07 12:35 44.47111 8.06708 35217 ft 471 kts 224°
2026-04-07 12:36 44.42551 8.00133 35210 ft 471 kts 224°
2026-04-07 12:36 44.37983 7.93561 35209 ft 471 kts 224°
2026-04-07 12:37 44.33409 7.86997 35214 ft 472 kts 223°
2026-04-07 12:37 44.28827 7.80437 35218 ft 472 kts 224°
2026-04-07 12:38 44.24010 7.74262 35250 ft 471 kts 219°
2026-04-07 12:38 44.19116 7.68192 35218 ft 470 kts 219°
2026-04-07 12:39 44.14292 7.62023 35225 ft 473 kts 226°
2026-04-07 12:39 44.09948 7.55133 35236 ft 474 kts 227°
2026-04-07 12:40 44.05611 7.48207 35240 ft 475 kts 227°
2026-04-07 12:40 44.01278 7.41295 35250 ft 475 kts 226°
2026-04-07 12:41 43.96967 7.34436 35260 ft 475 kts 227°
2026-04-07 12:41 43.92617 7.27532 35266 ft 475 kts 226°
2026-04-07 12:42 43.88260 7.20632 35284 ft 476 kts 226°
2026-04-07 12:42 43.83902 7.13747 35284 ft 475 kts 226°
2026-04-07 12:43 43.79533 7.06861 35288 ft 475 kts 226°
2026-04-07 12:43 43.75166 6.99993 35278 ft 476 kts 226°
2026-04-07 12:44 43.71451 6.92463 35266 ft 478 kts 246°
2026-04-07 12:44 43.68873 6.83948 35245 ft 481 kts 246°
2026-04-07 12:45 43.66330 6.75401 35261 ft 481 kts 246°
2026-04-07 12:45 43.63800 6.66857 35253 ft 481 kts 246°
2026-04-07 12:46 43.61264 6.58314 35258 ft 482 kts 246°
2026-04-07 12:46 43.58717 6.49768 35250 ft 482 kts 246°
2026-04-07 12:47 43.56164 6.41227 35249 ft 481 kts 246°
2026-04-07 12:47 43.53605 6.32694 35241 ft 481 kts 246°
2026-04-07 12:48 43.51044 6.24185 35244 ft 481 kts 246°
2026-04-07 12:48 43.48473 6.15667 35245 ft 481 kts 246°
2026-04-07 12:49 43.45899 6.07168 35254 ft 481 kts 246°
2026-04-07 12:49 43.43318 5.98680 35261 ft 481 kts 246°
2026-04-07 12:50 43.40752 5.90263 35264 ft 481 kts 246°
2026-04-07 12:50 43.38159 5.81787 35259 ft 481 kts 246°
2026-04-07 12:51 43.35560 5.73320 35263 ft 481 kts 246°
2026-04-07 12:51 43.32960 5.64873 35263 ft 479 kts 246°
2026-04-07 12:52 43.30359 5.56454 35272 ft 479 kts 246°
2026-04-07 12:52 43.27752 5.48042 35277 ft 478 kts 246°
2026-04-07 12:53 43.25149 5.39668 35269 ft 477 kts 246°
2026-04-07 12:53 43.22539 5.31299 35258 ft 477 kts 246°
2026-04-07 12:54 43.19928 5.22958 35265 ft 476 kts 246°
2026-04-07 12:54 43.17316 5.14639 35265 ft 476 kts 246°
2026-04-07 12:55 43.14696 5.06318 35265 ft 476 kts 246°
2026-04-07 12:55 43.12070 4.98007 35265 ft 475 kts 246°
2026-04-07 12:56 43.09449 4.89739 35267 ft 471 kts 247°
2026-04-07 12:56 43.06839 4.81539 35262 ft 470 kts 245°
2026-04-07 12:56 43.05153 4.77727 35228 ft 469 kts 229°
2026-04-07 12:57 43.02857 4.74589 35275 ft 468 kts 222°
2026-04-07 12:57 42.98034 4.68558 35249 ft 470 kts 221°
2026-04-07 12:58 42.93150 4.62617 35257 ft 470 kts 221°
2026-04-07 12:58 42.88260 4.56723 35237 ft 468 kts 221°
2026-04-07 12:59 42.83381 4.50857 35246 ft 467 kts 221°
2026-04-07 12:59 42.78539 4.45049 35248 ft 467 kts 221°
2026-04-07 13:00 42.73662 4.39212 35245 ft 467 kts 221°
2026-04-07 13:00 42.68781 4.33383 35245 ft 467 kts 221°
2026-04-07 13:01 42.63900 4.27567 35243 ft 467 kts 221°
2026-04-07 13:01 42.59015 4.21758 35238 ft 467 kts 221°
2026-04-07 13:02 42.54123 4.15954 35236 ft 466 kts 221°
2026-04-07 13:02 42.49269 4.10208 35234 ft 462 kts 222°
2026-04-07 13:03 42.45251 4.05459 35235 ft 461 kts 223°
2026-04-07 13:03 42.40406 3.99746 35235 ft 462 kts 222°
2026-04-07 13:04 42.35562 3.94045 35229 ft 462 kts 223°
2026-04-07 13:04 42.30724 3.88362 35228 ft 459 kts 223°
2026-04-07 13:05 42.26005 3.82608 35209 ft 456 kts 232°
2026-04-07 13:05 42.22302 3.75707 35203 ft 454 kts 236°
2026-04-07 13:06 42.18627 3.68795 35219 ft 454 kts 236°
2026-04-07 13:06 42.14966 3.61868 35220 ft 454 kts 236°
2026-04-07 13:07 42.11303 3.54949 35215 ft 452 kts 236°
2026-04-07 13:07 42.07650 3.48062 35214 ft 452 kts 236°
2026-04-07 13:08 42.04012 3.41221 35211 ft 452 kts 236°
2026-04-07 13:08 42.00350 3.34351 35208 ft 452 kts 236°
2026-04-07 13:09 41.96680 3.27481 35205 ft 452 kts 236°
2026-04-07 13:09 41.93008 3.20622 35209 ft 451 kts 236°
2026-04-07 13:10 41.89354 3.13813 35200 ft 449 kts 236°
2026-04-07 13:10 41.85695 3.07009 35204 ft 449 kts 236°
2026-04-07 13:11 41.82039 3.00228 35203 ft 447 kts 235°
2026-04-07 13:11 41.78391 2.93476 35205 ft 447 kts 236°
2026-04-07 13:12 41.74740 2.86732 35195 ft 447 kts 235°
2026-04-07 13:12 41.71086 2.79995 35186 ft 447 kts 235°
2026-04-07 13:13 41.67359 2.73339 35189 ft 447 kts 233°
2026-04-07 13:13 41.63533 2.66775 35184 ft 447 kts 233°
2026-04-07 13:14 41.59726 2.60227 35208 ft 446 kts 233°
2026-04-07 13:14 41.55918 2.53691 35206 ft 446 kts 233°
2026-04-07 13:15 41.52107 2.47165 35206 ft 446 kts 233°
2026-04-07 13:15 41.48297 2.40651 35208 ft 445 kts 233°
2026-04-07 13:16 41.44489 2.34157 35206 ft 445 kts 233°
2026-04-07 13:16 41.40673 2.27663 35201 ft 445 kts 233°
2026-04-07 13:17 41.36853 2.21175 35209 ft 446 kts 233°
2026-04-07 13:17 41.33028 2.14691 35210 ft 445 kts 233°
2026-04-07 13:18 41.29034 2.08406 35222 ft 445 kts 229°
2026-04-07 13:18 41.24886 2.02280 35214 ft 445 kts 229°
2026-04-07 13:19 41.20758 1.96144 35209 ft 446 kts 229°
2026-04-07 13:19 41.16628 1.90012 35201 ft 445 kts 229°
2026-04-07 13:20 41.12506 1.83904 35203 ft 444 kts 229°
2026-04-07 13:20 41.08389 1.77816 35201 ft 443 kts 229°
2026-04-07 13:21 41.04268 1.71747 35197 ft 443 kts 229°
2026-04-07 13:21 41.00138 1.65698 35203 ft 443 kts 229°
2026-04-07 13:22 40.96003 1.59651 35199 ft 443 kts 229°
2026-04-07 13:22 40.91864 1.53611 35198 ft 443 kts 229°
2026-04-07 13:23 40.87728 1.47586 35192 ft 442 kts 229°
2026-04-07 13:23 40.83589 1.41574 35197 ft 442 kts 229°
2026-04-07 13:24 40.79473 1.35608 35195 ft 442 kts 229°
2026-04-07 13:24 40.75327 1.29608 35197 ft 442 kts 228°
2026-04-07 13:25 40.71178 1.23617 35198 ft 442 kts 228°
2026-04-07 13:25 40.67029 1.17631 35195 ft 442 kts 228°
2026-04-07 13:26 40.62879 1.11656 35196 ft 442 kts 228°
2026-04-07 13:26 40.58727 1.05688 35195 ft 442 kts 227°
2026-04-07 13:27 40.54572 0.99731 35192 ft 442 kts 227°
2026-04-07 13:27 40.50410 0.93780 35195 ft 442 kts 227°
2026-04-07 13:28 40.46245 0.87837 35195 ft 442 kts 227°
2026-04-07 13:28 40.42094 0.81924 35191 ft 440 kts 227°
2026-04-07 13:29 40.37938 0.76017 35192 ft 440 kts 227°
2026-04-07 13:29 40.33813 0.70166 35193 ft 434 kts 227°
2026-04-07 13:30 40.29707 0.64352 35195 ft 435 kts 227°
2026-04-07 13:30 40.25597 0.58545 35192 ft 435 kts 227°
2026-04-07 13:31 40.21495 0.52763 35188 ft 432 kts 226°
2026-04-07 13:31 40.17402 0.47005 35196 ft 432 kts 226°
2026-04-07 13:32 40.13333 0.41290 35200 ft 432 kts 226°
2026-04-07 13:32 40.09233 0.35545 35201 ft 433 kts 226°
2026-04-07 13:33 40.05124 0.29795 35195 ft 433 kts 226°
2026-04-07 13:33 39.98953 0.21178 35193 ft 434 kts 226°
2026-04-07 13:34 39.94828 0.15427 35193 ft 434 kts 226°
2026-04-07 13:34 39.90703 0.09688 35192 ft 434 kts 226°
2026-04-07 13:35 39.86574 0.03954 35191 ft 434 kts 226°
2026-04-07 13:35 39.82442 -0.01771 35205 ft 434 kts 225°
2026-04-07 13:36 39.78326 -0.07464 35189 ft 430 kts 225°
2026-04-07 13:36 39.74223 -0.13127 35189 ft 430 kts 225°
2026-04-07 13:37 39.70116 -0.18785 35188 ft 430 kts 225°
2026-04-07 13:37 39.66007 -0.24435 35183 ft 430 kts 225°
2026-04-07 13:38 39.61895 -0.30080 35184 ft 430 kts 225°
2026-04-07 13:38 39.57808 -0.35678 35187 ft 430 kts 225°
2026-04-07 13:39 39.53669 -0.41339 35186 ft 429 kts 225°
2026-04-07 13:39 39.49587 -0.46912 35186 ft 429 kts 225°
2026-04-07 13:40 39.45858 -0.52953 35191 ft 430 kts 231°
2026-04-07 13:40 39.42237 -0.59120 35189 ft 430 kts 231°
2026-04-07 13:41 39.38618 -0.65285 35184 ft 430 kts 231°
2026-04-07 13:41 39.35001 -0.71439 35186 ft 430 kts 231°
2026-04-07 13:42 39.31377 -0.77591 35200 ft 431 kts 231°
2026-04-07 13:42 39.27747 -0.83742 35183 ft 430 kts 231°
2026-04-07 13:43 39.24115 -0.89885 35179 ft 431 kts 231°
2026-04-07 13:43 39.20476 -0.96028 35165 ft 431 kts 231°
2026-04-07 13:44 39.16839 -1.02155 35170 ft 431 kts 231°
2026-04-07 13:44 39.13193 -1.08286 35166 ft 431 kts 231°
2026-04-07 13:45 39.09571 -1.14363 35162 ft 430 kts 231°
2026-04-07 13:45 39.05924 -1.20472 35157 ft 430 kts 231°
2026-04-07 13:46 39.02278 -1.26569 35158 ft 430 kts 231°
2026-04-07 13:46 38.98627 -1.32662 35152 ft 430 kts 231°
2026-04-07 13:47 38.94972 -1.38751 35160 ft 430 kts 231°
2026-04-07 13:47 38.91314 -1.44831 35156 ft 430 kts 231°
2026-04-07 13:48 38.87654 -1.50905 35153 ft 430 kts 232°
2026-04-07 13:48 38.84003 -1.56952 35157 ft 427 kts 231°
2026-04-07 13:49 38.80366 -1.62965 35158 ft 427 kts 231°
2026-04-07 13:49 38.76725 -1.68973 35156 ft 427 kts 231°
2026-04-07 13:50 38.73059 -1.75011 35156 ft 427 kts 231°
2026-04-07 13:50 38.69435 -1.80964 35159 ft 427 kts 231°
2026-04-07 13:51 38.65785 -1.86951 35151 ft 426 kts 231°
2026-04-07 13:51 38.62134 -1.92928 35163 ft 426 kts 231°
2026-04-07 13:52 38.58488 -1.98885 35152 ft 425 kts 231°
2026-04-07 13:52 38.55434 -2.03866 35153 ft 425 kts 231°
2026-04-07 13:53 38.51783 -2.09813 35156 ft 425 kts 231°
2026-04-07 13:53 38.48131 -2.15752 35147 ft 425 kts 230°
2026-04-07 13:54 38.44503 -2.21643 35146 ft 425 kts 230°
2026-04-07 13:54 38.40844 -2.27571 35145 ft 425 kts 230°
2026-04-07 13:55 38.37191 -2.33478 35127 ft 424 kts 230°
2026-04-07 13:55 38.33211 -2.38960 35134 ft 422 kts 225°
2026-04-07 13:56 38.29165 -2.44375 35119 ft 422 kts 225°
2026-04-07 13:56 38.25131 -2.49807 35128 ft 422 kts 225°
2026-04-07 13:57 38.21101 -2.55230 35120 ft 421 kts 225°
2026-04-07 13:57 38.17071 -2.60642 35114 ft 421 kts 225°
2026-04-07 13:58 38.13045 -2.66042 35111 ft 420 kts 225°
2026-04-07 13:58 38.09029 -2.71419 35113 ft 419 kts 225°
2026-04-07 13:59 38.05023 -2.76772 35098 ft 418 kts 225°
2026-04-07 13:59 38.01009 -2.82127 35110 ft 419 kts 225°
2026-04-07 14:00 37.97021 -2.87440 35092 ft 418 kts 225°
2026-04-07 14:00 37.92995 -2.92770 35093 ft 419 kts 224°
2026-04-07 14:01 37.88972 -2.98086 35083 ft 418 kts 225°
2026-04-07 14:01 37.84940 -3.03404 35100 ft 419 kts 225°
2026-04-07 14:02 37.80910 -3.08710 35102 ft 416 kts 224°
2026-04-07 14:02 37.76908 -3.13971 35088 ft 415 kts 224°
2026-04-07 14:03 37.72895 -3.19237 35082 ft 416 kts 224°
2026-04-07 14:03 37.68879 -3.24499 35081 ft 416 kts 224°
2026-04-07 14:04 37.64863 -3.29752 35082 ft 415 kts 224°
2026-04-07 14:04 37.60859 -3.34981 35094 ft 414 kts 224°
2026-04-07 14:05 37.56847 -3.40210 35096 ft 414 kts 224°
2026-04-07 14:05 37.52838 -3.45428 35115 ft 414 kts 224°
2026-04-07 14:06 37.48849 -3.50612 35092 ft 412 kts 224°
2026-04-07 14:06 37.44846 -3.55806 35100 ft 413 kts 224°
2026-04-07 14:07 37.40872 -3.60953 35102 ft 413 kts 224°
2026-04-07 14:07 37.36867 -3.66130 35095 ft 413 kts 224°
2026-04-07 14:08 37.32867 -3.71294 35100 ft 413 kts 224°
2026-04-07 14:08 37.28864 -3.76453 35103 ft 412 kts 224°
2026-04-07 14:09 37.24856 -3.81611 35112 ft 412 kts 224°
2026-04-07 14:09 37.20854 -3.86752 35106 ft 411 kts 223°
2026-04-07 14:10 37.16855 -3.91881 35108 ft 411 kts 223°
2026-04-07 14:10 37.12870 -3.96984 35097 ft 408 kts 223°
2026-04-07 14:11 37.08902 -4.02057 35108 ft 408 kts 224°
2026-04-07 14:11 37.04925 -4.07133 35094 ft 408 kts 223°
2026-04-07 14:12 37.00946 -4.12205 35121 ft 408 kts 223°
2026-04-07 14:12 36.96967 -4.17267 35101 ft 408 kts 223°
2026-04-07 14:13 36.92986 -4.22325 35115 ft 408 kts 223°
2026-04-07 14:13 36.89022 -4.27353 35127 ft 410 kts 224°
2026-04-07 14:14 36.85011 -4.32433 35124 ft 411 kts 224°
2026-04-07 14:14 36.81386 -4.37913 35097 ft 414 kts 242°
2026-04-07 14:15 36.79258 -4.44645 35107 ft 418 kts 245°
2026-04-07 14:15 36.77223 -4.51451 35132 ft 419 kts 246°
2026-04-07 14:16 36.75223 -4.58271 35157 ft 419 kts 246°
2026-04-07 14:16 36.73218 -4.65114 35125 ft 420 kts 246°
2026-04-07 14:17 36.71211 -4.71954 35120 ft 420 kts 246°
2026-04-07 14:17 36.69198 -4.78795 35111 ft 420 kts 246°
2026-04-07 14:18 36.67178 -4.85641 35115 ft 422 kts 246°
2026-04-07 14:18 36.65156 -4.92477 35115 ft 420 kts 246°
2026-04-07 14:19 36.63132 -4.99308 35133 ft 420 kts 246°
2026-04-07 14:19 36.61111 -5.06109 35120 ft 419 kts 246°
2026-04-07 14:20 36.59085 -5.12909 35117 ft 419 kts 246°
2026-04-07 14:20 36.57057 -5.19700 35120 ft 419 kts 246°
2026-04-07 14:21 36.55026 -5.26487 35112 ft 419 kts 246°
2026-04-07 14:21 36.52990 -5.33273 35137 ft 419 kts 246°
2026-04-07 14:22 36.50962 -5.40020 35119 ft 414 kts 246°
2026-04-07 14:22 36.48294 -5.46217 35109 ft 411 kts 238°
2026-04-07 14:23 36.45423 -5.52346 35113 ft 411 kts 237°
2026-04-07 14:23 36.42534 -5.58461 35122 ft 410 kts 237°
2026-04-07 14:24 36.39622 -5.64611 35116 ft 410 kts 237°
2026-04-07 14:24 36.36726 -5.70716 35111 ft 410 kts 237°
2026-04-07 14:25 36.33851 -5.76765 35115 ft 409 kts 237°
2026-04-07 14:25 36.30958 -5.82840 35109 ft 409 kts 237°
2026-04-07 14:26 36.28063 -5.88912 35110 ft 409 kts 237°
2026-04-07 14:26 36.25166 -5.94975 35103 ft 409 kts 237°
2026-04-07 14:27 36.21948 -6.00759 35127 ft 408 kts 231°
2026-04-07 14:27 36.18531 -6.06358 35095 ft 407 kts 231°
2026-04-07 14:28 36.15099 -6.11945 35114 ft 408 kts 231°
2026-04-07 14:28 36.11667 -6.17520 35106 ft 407 kts 231°
2026-04-07 14:29 36.08231 -6.23096 35083 ft 407 kts 232°
2026-04-07 14:29 36.04795 -6.28659 35101 ft 408 kts 231°
2026-04-07 14:30 36.01351 -6.34227 35104 ft 407 kts 231°
2026-04-07 14:30 35.97909 -6.39783 35099 ft 408 kts 231°
2026-04-07 14:31 35.94463 -6.45338 35097 ft 407 kts 231°
2026-04-07 14:31 35.91023 -6.50875 35095 ft 405 kts 232°
2026-04-07 14:32 35.87595 -6.56384 35092 ft 405 kts 231°
2026-04-07 14:32 35.84167 -6.61886 35090 ft 405 kts 231°
2026-04-07 14:33 35.80733 -6.67385 35085 ft 405 kts 231°
2026-04-07 14:33 35.77295 -6.72882 35085 ft 405 kts 231°
2026-04-07 14:34 35.73857 -6.78371 35086 ft 405 kts 231°
2026-04-07 14:34 35.70414 -6.83858 35090 ft 405 kts 231°
2026-04-07 14:35 35.66978 -6.89325 35086 ft 402 kts 232°
2026-04-07 14:35 35.63577 -6.94730 35090 ft 403 kts 232°
2026-04-07 14:36 35.60145 -7.00174 35084 ft 403 kts 231°
2026-04-07 14:36 35.56712 -7.05611 35083 ft 403 kts 231°
2026-04-07 14:37 35.53275 -7.11046 35057 ft 403 kts 232°
2026-04-07 14:37 35.49831 -7.16484 35084 ft 403 kts 232°
2026-04-07 14:38 35.46389 -7.21910 35103 ft 403 kts 232°
2026-04-07 14:38 35.42953 -7.27317 35086 ft 401 kts 232°
2026-04-07 14:39 35.37805 -7.35405 35086 ft 401 kts 232°
2026-04-07 14:40 35.34367 -7.40796 35084 ft 401 kts 232°
2026-04-07 14:40 35.30927 -7.46181 35086 ft 401 kts 232°
2026-04-07 14:41 35.27488 -7.51556 35086 ft 401 kts 232°
2026-04-07 14:41 35.24624 -7.56026 35073 ft 402 kts 232°
2026-04-07 14:42 35.21169 -7.61412 35118 ft 402 kts 232°
2026-04-07 14:42 35.17725 -7.66771 35089 ft 400 kts 232°
2026-04-07 14:43 35.14279 -7.72126 35092 ft 401 kts 232°
2026-04-07 14:43 35.10832 -7.77473 35089 ft 401 kts 232°
2026-04-07 14:44 35.07381 -7.82820 35084 ft 401 kts 232°
2026-04-07 14:44 35.03927 -7.88162 35085 ft 401 kts 232°
2026-04-07 14:45 35.00473 -7.93495 35089 ft 401 kts 232°
2026-04-07 14:45 34.97015 -7.98828 35070 ft 401 kts 233°
2026-04-07 14:46 34.93550 -8.04163 35090 ft 401 kts 233°
2026-04-07 14:46 34.90108 -8.09455 35094 ft 401 kts 233°
2026-04-07 14:47 34.86640 -8.14779 35092 ft 401 kts 233°
2026-04-07 14:47 34.83167 -8.20102 35092 ft 401 kts 233°
2026-04-07 14:48 34.79693 -8.25419 35091 ft 401 kts 233°
2026-04-07 14:48 34.76217 -8.30730 35092 ft 401 kts 233°
2026-04-07 14:49 34.72741 -8.36035 35112 ft 401 kts 233°
2026-04-07 14:49 34.69260 -8.41337 35071 ft 401 kts 233°
2026-04-07 14:50 34.65768 -8.46650 35092 ft 403 kts 233°
2026-04-07 14:50 34.62272 -8.51960 35098 ft 403 kts 233°
2026-04-07 14:51 34.58773 -8.57267 35102 ft 403 kts 233°
2026-04-07 14:51 34.55273 -8.62569 35097 ft 402 kts 233°
2026-04-07 14:52 34.51770 -8.67869 35098 ft 402 kts 233°
2026-04-07 14:52 34.48269 -8.73159 35122 ft 402 kts 233°
2026-04-07 14:53 34.44749 -8.78417 35102 ft 402 kts 230°
2026-04-07 14:53 34.40410 -8.82766 35052 ft 407 kts 223°
2026-04-07 14:54 34.35974 -8.87064 35109 ft 410 kts 223°
2026-04-07 14:54 34.31518 -8.91347 35105 ft 409 kts 223°
2026-04-07 14:55 34.27059 -8.95623 35103 ft 409 kts 223°
2026-04-07 14:55 34.22628 -8.99867 35106 ft 409 kts 223°
2026-04-07 14:56 34.18168 -9.04131 35105 ft 409 kts 223°
2026-04-07 14:56 34.13705 -9.08394 35054 ft 409 kts 223°
2026-04-07 14:57 34.09212 -9.12679 35119 ft 413 kts 223°
2026-04-07 14:57 34.04711 -9.16966 35114 ft 412 kts 223°
2026-04-07 14:58 34.00209 -9.21247 35112 ft 412 kts 223°
2026-04-07 14:58 33.95702 -9.25528 35114 ft 412 kts 223°
2026-04-07 14:59 33.91197 -9.29800 35117 ft 412 kts 223°
2026-04-07 14:59 33.86690 -9.34068 35115 ft 412 kts 223°
2026-04-07 15:00 33.82170 -9.38344 35115 ft 415 kts 223°
2026-04-07 15:00 33.77630 -9.42631 35112 ft 415 kts 223°
2026-04-07 15:01 33.73088 -9.46915 35128 ft 415 kts 224°
2026-04-07 15:01 33.68558 -9.51181 35114 ft 413 kts 224°
2026-04-07 15:02 33.64031 -9.55440 35120 ft 414 kts 224°
2026-04-07 15:02 33.59501 -9.59694 35122 ft 413 kts 224°
2026-04-07 15:03 33.54968 -9.63947 35116 ft 415 kts 224°
2026-04-07 15:03 33.50408 -9.68217 35125 ft 416 kts 224°
2026-04-07 15:04 33.45881 -9.72453 35122 ft 416 kts 224°
2026-04-07 15:04 33.41326 -9.76707 35119 ft 416 kts 224°
2026-04-07 15:05 33.36761 -9.80965 35130 ft 416 kts 224°
2026-04-07 15:05 33.32200 -9.85214 35128 ft 416 kts 225°
2026-04-07 15:06 33.27624 -9.89473 35104 ft 418 kts 225°
2026-04-07 15:06 33.23019 -9.93750 35132 ft 420 kts 225°
2026-04-07 15:07 33.18410 -9.98026 35131 ft 419 kts 225°
2026-04-07 15:07 33.13802 -10.02295 35132 ft 419 kts 225°
2026-04-07 15:08 33.09188 -10.06567 35130 ft 419 kts 225°
2026-04-07 15:08 33.04576 -10.10829 35134 ft 420 kts 225°
2026-04-07 15:09 32.99958 -10.15085 35131 ft 420 kts 225°
2026-04-07 15:09 32.95340 -10.19333 35132 ft 420 kts 225°
2026-04-07 15:10 32.90710 -10.23588 35133 ft 421 kts 225°
2026-04-07 15:10 32.86072 -10.27844 35140 ft 421 kts 225°
2026-04-07 15:11 32.81427 -10.32100 35143 ft 421 kts 225°
2026-04-07 15:11 32.76783 -10.36350 35142 ft 421 kts 225°
2026-04-07 15:12 32.72137 -10.40597 35099 ft 421 kts 225°
2026-04-07 15:12 32.67501 -10.44828 35146 ft 424 kts 225°
2026-04-07 15:13 32.62792 -10.49121 35141 ft 424 kts 225°
2026-04-07 15:13 32.58140 -10.53355 35143 ft 424 kts 225°
2026-04-07 15:14 32.53460 -10.57610 35142 ft 424 kts 225°
2026-04-07 15:14 32.48761 -10.61876 35145 ft 426 kts 225°
2026-04-07 15:15 32.44055 -10.66142 35145 ft 426 kts 225°
2026-04-07 15:15 32.39338 -10.70412 35141 ft 428 kts 225°
2026-04-07 15:16 32.34606 -10.74691 35141 ft 428 kts 225°
2026-04-07 15:16 32.29874 -10.78963 35148 ft 428 kts 225°
2026-04-07 15:17 32.25144 -10.83229 35143 ft 428 kts 225°
2026-04-07 15:17 32.20408 -10.87494 35149 ft 428 kts 225°
2026-04-07 15:18 32.15674 -10.91751 35151 ft 428 kts 225°
2026-04-07 15:18 32.10932 -10.96009 35133 ft 429 kts 225°
2026-04-07 15:19 32.06182 -11.00269 35157 ft 429 kts 225°
2026-04-07 15:19 32.01431 -11.04525 35150 ft 429 kts 225°
2026-04-07 15:20 31.96681 -11.08774 35151 ft 429 kts 225°
2026-04-07 15:20 31.91929 -11.13019 35161 ft 429 kts 225°
2026-04-07 15:21 31.87172 -11.17263 35154 ft 429 kts 225°
2026-04-07 15:21 31.82444 -11.21476 35139 ft 430 kts 225°
2026-04-07 15:22 31.77676 -11.25720 35152 ft 430 kts 225°
2026-04-07 15:22 31.72909 -11.29970 35155 ft 430 kts 225°
2026-04-07 15:23 31.68141 -11.34222 35151 ft 431 kts 226°
2026-04-07 15:23 31.63362 -11.38478 35158 ft 431 kts 226°
2026-04-07 15:24 31.58581 -11.42731 35156 ft 431 kts 226°
2026-04-07 15:24 31.53801 -11.46977 35127 ft 432 kts 226°
2026-04-07 15:25 31.48994 -11.51241 35147 ft 433 kts 226°
2026-04-07 15:25 31.44188 -11.55499 35156 ft 433 kts 226°
2026-04-07 15:26 31.39381 -11.59753 35158 ft 433 kts 226°
2026-04-07 15:26 31.34573 -11.64001 35155 ft 433 kts 226°
2026-04-07 15:27 31.29762 -11.68246 35160 ft 433 kts 226°
2026-04-07 15:27 31.24982 -11.72459 35113 ft 434 kts 225°
2026-04-07 15:28 31.20141 -11.76719 35157 ft 437 kts 225°
2026-04-07 15:28 31.15293 -11.80981 35159 ft 436 kts 225°
2026-04-07 15:29 31.10445 -11.85237 35160 ft 436 kts 225°
2026-04-07 15:29 31.05594 -11.89489 35160 ft 436 kts 225°
2026-04-07 15:30 31.00742 -11.93738 35160 ft 436 kts 225°
2026-04-07 15:30 30.95886 -11.97984 35131 ft 436 kts 225°
2026-04-07 15:31 30.91018 -12.02235 35155 ft 439 kts 225°
2026-04-07 15:31 30.86135 -12.06493 35156 ft 439 kts 225°
2026-04-07 15:32 30.82064 -12.10040 35160 ft 440 kts 225°
2026-04-07 15:32 30.77168 -12.14299 35162 ft 440 kts 225°
2026-04-07 15:33 30.72270 -12.18555 35161 ft 440 kts 225°
2026-04-07 15:33 30.67372 -12.22806 35162 ft 440 kts 225°
2026-04-07 15:34 30.62454 -12.27068 35159 ft 442 kts 225°
2026-04-07 15:34 30.57522 -12.31338 35162 ft 442 kts 225°
2026-04-07 15:35 30.52586 -12.35606 35164 ft 442 kts 225°
2026-04-07 15:35 30.47647 -12.39857 35165 ft 442 kts 224°
2026-04-07 15:36 30.42698 -12.44110 35162 ft 443 kts 224°
2026-04-07 15:36 30.37778 -12.48334 35163 ft 443 kts 224°
2026-04-07 15:37 30.32816 -12.52587 35147 ft 445 kts 224°
2026-04-07 15:37 30.27834 -12.56853 35161 ft 446 kts 224°
2026-04-07 15:38 30.22845 -12.61119 35165 ft 446 kts 224°
2026-04-07 15:38 30.17860 -12.65376 35167 ft 446 kts 224°
2026-04-07 15:39 30.12871 -12.69632 35167 ft 446 kts 224°
2026-04-07 15:39 30.08171 -12.74185 35173 ft 439 kts 230°
2026-04-07 15:40 30.03622 -12.78910 35159 ft 441 kts 229°
2026-04-07 15:40 29.99028 -12.83618 35167 ft 442 kts 229°
2026-04-07 15:41 29.94431 -12.88316 35165 ft 442 kts 229°
2026-04-07 15:41 29.89832 -12.93010 35172 ft 442 kts 229°
2026-04-07 15:42 29.85233 -12.97699 35169 ft 442 kts 229°
2026-04-07 15:42 29.78326 -13.04728 35168 ft 442 kts 229°
2026-04-07 15:43 29.73721 -13.09406 35142 ft 442 kts 229°
2026-04-07 15:43 29.69096 -13.14100 35157 ft 445 kts 228°
2026-04-07 15:44 29.64477 -13.18781 35165 ft 446 kts 228°
2026-04-07 15:44 29.59828 -13.23486 35169 ft 445 kts 228°
2026-04-07 15:45 29.55177 -13.28189 35174 ft 445 kts 228°
2026-04-07 15:45 29.50522 -13.32888 35174 ft 445 kts 228°
2026-04-07 15:46 29.45869 -13.37579 35170 ft 445 kts 228°
2026-04-07 15:46 29.41209 -13.42272 35154 ft 446 kts 228°
2026-04-07 15:47 29.36539 -13.46969 35170 ft 447 kts 228°
2026-04-07 15:47 29.31868 -13.51661 35162 ft 447 kts 227°
2026-04-07 15:48 29.27183 -13.56362 35171 ft 448 kts 227°
2026-04-07 15:48 29.22501 -13.61052 35175 ft 447 kts 227°
2026-04-07 15:49 29.17813 -13.65743 35178 ft 447 kts 227°
2026-04-07 15:49 29.13126 -13.70427 35179 ft 447 kts 227°
2026-04-07 15:50 29.08435 -13.75110 35175 ft 448 kts 227°
2026-04-07 15:50 29.03740 -13.79790 35177 ft 448 kts 227°
2026-04-07 15:51 28.99049 -13.84461 35177 ft 447 kts 227°
2026-04-07 15:51 28.94350 -13.89133 35178 ft 449 kts 227°
2026-04-07 15:52 28.89640 -13.93811 35174 ft 449 kts 227°
2026-04-07 15:52 28.84930 -13.98483 35177 ft 449 kts 227°
2026-04-07 15:53 28.80251 -14.03118 35175 ft 449 kts 227°
2026-04-07 15:53 28.75537 -14.07782 35171 ft 449 kts 226°
2026-04-07 15:54 28.70789 -14.12475 35173 ft 449 kts 226°
2026-04-07 15:54 28.66106 -14.17096 35173 ft 449 kts 226°
2026-04-07 15:55 28.61386 -14.21749 35173 ft 449 kts 226°
2026-04-07 15:55 28.56668 -14.26394 35175 ft 449 kts 226°
2026-04-07 15:56 28.51943 -14.31041 35176 ft 449 kts 226°
2026-04-07 15:56 28.47220 -14.35680 35158 ft 449 kts 225°
2026-04-07 15:57 28.42494 -14.40315 35178 ft 449 kts 225°
2026-04-07 15:57 28.37767 -14.44947 35178 ft 449 kts 225°
2026-04-07 15:58 28.33037 -14.49575 35176 ft 449 kts 225°
2026-04-07 15:58 28.28307 -14.54198 35181 ft 449 kts 225°
2026-04-07 15:59 28.23575 -14.58817 35174 ft 449 kts 225°
2026-04-07 15:59 28.18847 -14.63427 35178 ft 448 kts 225°
2026-04-07 16:00 28.14114 -14.68036 35171 ft 448 kts 225°
2026-04-07 16:00 28.09388 -14.72632 35180 ft 448 kts 225°
2026-04-07 16:01 28.04659 -14.77226 35182 ft 448 kts 225°
2026-04-07 16:01 27.99931 -14.81813 35184 ft 448 kts 225°
2026-04-07 16:02 27.95201 -14.86398 35177 ft 448 kts 225°
2026-04-07 16:02 27.90471 -14.90978 35179 ft 448 kts 225°
2026-04-07 16:03 27.85736 -14.95557 35169 ft 448 kts 225°
2026-04-07 16:03 27.81004 -15.00127 35167 ft 448 kts 225°
2026-04-07 16:04 27.76267 -15.04698 35174 ft 447 kts 225°
2026-04-07 16:04 27.71564 -15.09226 35174 ft 447 kts 225°
2026-04-07 16:05 27.66826 -15.13786 35170 ft 447 kts 225°
2026-04-07 16:05 27.62094 -15.18337 35167 ft 447 kts 225°
2026-04-07 16:06 27.57354 -15.22890 35162 ft 447 kts 225°
2026-04-07 16:06 27.52614 -15.27438 35162 ft 447 kts 225°
2026-04-07 16:07 27.47874 -15.31980 35158 ft 447 kts 224°
2026-04-07 16:07 27.43139 -15.36513 35160 ft 447 kts 224°
2026-04-07 16:08 27.38398 -15.41046 35398 ft 447 kts 224°
2026-04-07 16:08 27.36030 -15.43308 35732 ft 446 kts 224°
2026-04-07 16:08 27.33667 -15.45565 36053 ft 445 kts 224°
2026-04-07 16:09 27.31305 -15.47818 36188 ft 445 kts 224°
2026-04-07 16:09 27.28952 -15.50062 36164 ft 442 kts 224°
2026-04-07 16:09 27.24274 -15.54520 36166 ft 441 kts 224°
2026-04-07 16:10 27.19587 -15.58980 36164 ft 441 kts 224°
2026-04-07 16:10 27.14900 -15.63435 36165 ft 442 kts 224°
2026-04-07 16:11 27.10208 -15.67891 36171 ft 442 kts 224°
2026-04-07 16:11 27.05517 -15.72340 36174 ft 442 kts 224°
2026-04-07 16:12 27.00823 -15.76788 36172 ft 442 kts 224°
2026-04-07 16:12 26.96131 -15.81228 36171 ft 442 kts 224°
2026-04-07 16:13 26.91433 -15.85668 36177 ft 442 kts 224°
2026-04-07 16:13 26.86734 -15.90105 36177 ft 442 kts 224°
2026-04-07 16:14 26.82037 -15.94535 36177 ft 442 kts 224°
2026-04-07 16:14 26.77367 -15.98935 36177 ft 442 kts 224°
2026-04-07 16:15 26.72670 -16.03354 36174 ft 441 kts 224°
2026-04-07 16:15 26.67976 -16.07766 36177 ft 441 kts 224°
2026-04-07 16:16 26.63284 -16.12172 36177 ft 441 kts 224°
2026-04-07 16:16 26.58588 -16.16576 36177 ft 441 kts 224°
2026-04-07 16:17 26.53889 -16.20979 36180 ft 441 kts 224°
2026-04-07 16:17 26.49188 -16.25377 36169 ft 442 kts 224°
2026-04-07 16:18 26.44469 -16.29789 36179 ft 442 kts 224°
2026-04-07 16:18 26.39751 -16.34195 36172 ft 442 kts 224°
2026-04-07 16:19 26.35035 -16.38594 36176 ft 442 kts 224°
2026-04-07 16:19 26.30322 -16.42984 36177 ft 442 kts 224°
2026-04-07 16:20 26.25604 -16.47376 36167 ft 442 kts 224°
2026-04-07 16:20 26.21684 -16.51020 36172 ft 442 kts 224°
2026-04-07 16:21 26.16962 -16.55406 36174 ft 442 kts 224°
2026-04-07 16:21 26.12236 -16.59791 36173 ft 442 kts 224°
2026-04-07 16:22 26.07511 -16.64170 36172 ft 442 kts 224°
2026-04-07 16:22 26.02780 -16.68549 36173 ft 442 kts 224°
2026-04-07 16:23 25.98049 -16.72925 36172 ft 443 kts 223°
2026-04-07 16:23 25.93308 -16.77304 36172 ft 443 kts 223°
2026-04-07 16:24 25.88565 -16.81681 36172 ft 443 kts 223°
2026-04-07 16:24 25.83824 -16.86050 36171 ft 443 kts 223°
2026-04-07 16:25 25.79072 -16.90426 36173 ft 444 kts 223°
2026-04-07 16:25 25.74354 -16.94766 36173 ft 444 kts 223°
2026-04-07 16:26 25.69573 -16.99158 36170 ft 444 kts 223°
2026-04-07 16:26 25.64851 -17.03492 36170 ft 444 kts 223°
2026-04-07 16:27 25.60092 -17.07856 36168 ft 445 kts 223°
2026-04-07 16:27 25.55316 -17.12230 36169 ft 445 kts 223°
2026-04-07 16:28 25.50541 -17.16599 36169 ft 445 kts 223°
2026-04-07 16:28 25.45766 -17.20963 36168 ft 445 kts 223°
2026-04-07 16:29 25.40988 -17.25325 36168 ft 445 kts 223°
2026-04-07 16:29 25.36210 -17.29682 36168 ft 445 kts 223°
2026-04-07 16:30 25.31428 -17.34038 36168 ft 445 kts 223°
2026-04-07 16:30 25.26647 -17.38389 36167 ft 445 kts 223°
2026-04-07 16:31 25.21860 -17.42742 36166 ft 447 kts 223°
2026-04-07 16:31 25.17056 -17.47106 36163 ft 447 kts 223°
2026-04-07 16:32 25.12251 -17.51467 36165 ft 447 kts 223°
2026-04-07 16:32 25.07444 -17.55824 36164 ft 447 kts 223°
2026-04-07 16:33 25.02668 -17.60149 36163 ft 447 kts 223°
2026-04-07 16:33 24.97584 -17.64205 36177 ft 450 kts 216°
2026-04-07 16:34 24.92277 -17.67890 36164 ft 451 kts 216°
2026-04-07 16:34 24.86960 -17.71561 36151 ft 451 kts 216°
2026-04-07 16:35 24.81635 -17.75231 36155 ft 452 kts 216°
2026-04-07 16:35 24.76339 -17.78879 36162 ft 452 kts 216°
2026-04-07 16:36 24.71001 -17.82552 36160 ft 452 kts 216°
2026-04-07 16:36 24.65667 -17.86217 36157 ft 452 kts 216°
2026-04-07 16:37 24.60326 -17.89884 36160 ft 452 kts 216°
2026-04-07 16:37 24.54986 -17.93547 36160 ft 452 kts 216°
2026-04-07 16:38 24.49645 -17.97206 36159 ft 453 kts 215°
2026-04-07 16:38 24.44300 -18.00865 36159 ft 453 kts 215°
2026-04-07 16:39 24.38948 -18.04524 36157 ft 453 kts 215°
2026-04-07 16:39 24.33599 -18.08177 36157 ft 453 kts 215°
2026-04-07 16:40 24.28244 -18.11832 36156 ft 454 kts 215°
2026-04-07 16:40 24.22882 -18.15487 36154 ft 454 kts 215°
2026-04-07 16:41 24.17525 -18.19135 36152 ft 453 kts 215°
2026-04-07 16:41 24.12209 -18.22752 36149 ft 453 kts 215°
2026-04-07 16:42 24.06857 -18.26390 36150 ft 453 kts 215°
2026-04-07 16:42 24.01507 -18.30022 36155 ft 453 kts 215°
2026-04-07 16:43 23.96152 -18.33654 36151 ft 453 kts 215°
2026-04-07 16:43 23.90798 -18.37283 36152 ft 453 kts 215°
2026-04-07 16:44 23.85441 -18.40909 36145 ft 453 kts 215°
2026-04-07 16:44 23.80081 -18.44534 36153 ft 453 kts 215°
2026-04-07 16:45 23.74716 -18.48159 36157 ft 453 kts 215°
2026-04-07 16:45 23.69352 -18.51779 36153 ft 453 kts 215°
2026-04-07 16:46 23.63986 -18.55398 36154 ft 453 kts 215°
2026-04-07 16:46 23.58616 -18.59016 36155 ft 453 kts 215°
2026-04-07 16:47 23.53249 -18.62628 36151 ft 453 kts 215°
2026-04-07 16:47 23.47880 -18.66237 36156 ft 453 kts 215°
2026-04-07 16:48 23.42514 -18.69842 36151 ft 454 kts 215°
2026-04-07 16:49 23.34454 -18.75249 36150 ft 454 kts 215°
2026-04-07 16:49 23.29082 -18.78849 36145 ft 454 kts 214°
2026-04-07 16:50 23.23741 -18.82424 36147 ft 454 kts 214°
2026-04-07 16:50 23.18375 -18.86013 36140 ft 452 kts 215°
2026-04-07 16:51 23.13027 -18.89586 36141 ft 451 kts 215°
2026-04-07 16:51 23.07673 -18.93160 36141 ft 452 kts 215°
2026-04-07 16:52 23.02320 -18.96730 36143 ft 452 kts 215°
2026-04-07 16:52 22.96967 -19.00297 36148 ft 452 kts 215°
2026-04-07 16:53 22.91608 -19.03864 36153 ft 452 kts 214°
2026-04-07 16:53 22.86258 -19.07422 36141 ft 450 kts 215°
2026-04-07 16:54 22.80930 -19.10962 36140 ft 449 kts 215°
2026-04-07 16:54 22.75598 -19.14501 36143 ft 450 kts 215°
2026-04-07 16:55 22.70257 -19.18042 36139 ft 450 kts 215°
2026-04-07 16:55 22.64918 -19.21580 36138 ft 450 kts 215°
2026-04-07 16:56 22.59577 -19.25116 36139 ft 450 kts 215°
2026-04-07 16:56 22.54233 -19.28650 36130 ft 449 kts 215°
2026-04-07 16:57 22.48924 -19.32158 36135 ft 446 kts 215°
2026-04-07 16:57 22.43623 -19.35657 36138 ft 446 kts 215°
2026-04-07 16:58 22.38321 -19.39154 36137 ft 446 kts 215°
2026-04-07 16:58 22.33019 -19.42648 36137 ft 446 kts 215°
2026-04-07 16:59 22.27714 -19.46141 36129 ft 446 kts 215°
2026-04-07 16:59 22.22399 -19.49638 36132 ft 448 kts 215°
2026-04-07 17:00 22.17108 -19.53115 36132 ft 442 kts 216°
2026-04-07 17:00 22.11866 -19.56558 36130 ft 441 kts 216°
2026-04-07 17:01 22.06658 -19.59972 36131 ft 441 kts 215°
2026-04-07 17:01 22.01416 -19.63406 36127 ft 441 kts 215°
2026-04-07 17:02 21.96172 -19.66840 36131 ft 441 kts 215°
2026-04-07 17:02 21.90922 -19.70274 36132 ft 441 kts 215°
2026-04-07 17:03 21.85684 -19.73698 36132 ft 438 kts 216°
2026-04-07 17:03 21.80504 -19.77080 36125 ft 435 kts 216°
2026-04-07 17:04 21.75328 -19.80458 36127 ft 435 kts 216°
2026-04-07 17:04 21.70146 -19.83836 36127 ft 436 kts 216°
2026-04-07 17:05 21.64961 -19.87214 36128 ft 436 kts 216°
2026-04-07 17:05 21.59771 -19.90591 36129 ft 436 kts 216°
2026-04-07 17:06 21.54584 -19.93964 36128 ft 436 kts 216°
2026-04-07 17:06 21.49422 -19.97318 36125 ft 431 kts 216°
2026-04-07 17:07 21.44291 -20.00649 36123 ft 431 kts 216°
2026-04-07 17:07 21.39163 -20.03976 36123 ft 431 kts 216°
2026-04-07 17:08 21.34028 -20.07303 36123 ft 431 kts 216°
2026-04-07 17:08 21.28898 -20.10625 36121 ft 431 kts 216°
2026-04-07 17:09 21.23763 -20.13948 36115 ft 431 kts 216°
2026-04-07 17:09 21.18664 -20.17245 36107 ft 430 kts 217°
2026-04-07 17:10 21.13566 -20.20538 36117 ft 427 kts 217°
2026-04-07 17:10 21.08473 -20.23825 36123 ft 427 kts 217°
2026-04-07 17:11 21.03381 -20.27109 36116 ft 427 kts 217°
2026-04-07 17:11 20.99148 -20.29837 36114 ft 427 kts 217°
2026-04-07 17:12 20.94053 -20.33118 36121 ft 427 kts 217°
2026-04-07 17:12 20.88961 -20.36394 36119 ft 427 kts 217°
2026-04-07 17:13 20.83876 -20.39664 36121 ft 424 kts 217°
2026-04-07 17:13 20.78839 -20.42900 36112 ft 422 kts 217°
2026-04-07 17:14 20.73808 -20.46129 36111 ft 422 kts 217°
2026-04-07 17:14 20.68781 -20.49354 36115 ft 422 kts 217°
2026-04-07 17:15 20.63735 -20.52588 36112 ft 422 kts 217°
2026-04-07 17:15 20.58697 -20.55814 36114 ft 422 kts 217°
2026-04-07 17:16 20.53657 -20.59040 36114 ft 422 kts 217°
2026-04-07 17:16 20.48630 -20.62255 36109 ft 419 kts 218°
2026-04-07 17:17 20.43636 -20.65446 36111 ft 419 kts 218°
2026-04-07 17:17 20.38638 -20.68638 36113 ft 419 kts 218°
2026-04-07 17:18 20.33634 -20.71822 36109 ft 419 kts 218°
2026-04-07 17:18 20.28635 -20.75002 36111 ft 419 kts 218°
2026-04-07 17:19 20.23634 -20.78180 36110 ft 419 kts 218°
2026-04-07 17:19 20.18630 -20.81358 36103 ft 419 kts 218°
2026-04-07 17:20 20.13618 -20.84539 36109 ft 420 kts 218°
2026-04-07 17:20 20.08605 -20.87717 36110 ft 420 kts 218°
2026-04-07 17:21 20.03588 -20.90896 36111 ft 420 kts 218°
2026-04-07 17:21 19.98569 -20.94074 36111 ft 420 kts 218°
2026-04-07 17:22 19.93549 -20.97250 36109 ft 420 kts 218°
2026-04-07 17:22 19.88568 -21.00399 36108 ft 420 kts 218°
2026-04-07 17:23 19.83547 -21.03571 36078 ft 419 kts 218°
2026-04-07 17:23 19.78542 -21.06730 36099 ft 418 kts 218°
2026-04-07 17:24 19.73545 -21.09883 36106 ft 418 kts 218°
2026-04-07 17:24 19.68547 -21.13033 36106 ft 418 kts 218°
2026-04-07 17:25 19.63363 -21.15885 36110 ft 427 kts 208°
2026-04-07 17:25 19.57893 -21.18312 36098 ft 426 kts 211°
2026-04-07 17:26 19.52462 -21.20818 36103 ft 425 kts 211°
2026-04-07 17:26 19.47043 -21.23332 36097 ft 424 kts 211°
2026-04-07 17:27 19.41638 -21.25840 36093 ft 424 kts 211°
2026-04-07 17:27 19.36233 -21.28346 36098 ft 424 kts 211°
2026-04-07 17:28 19.30828 -21.30850 36101 ft 424 kts 211°
2026-04-07 17:28 19.25422 -21.33352 36099 ft 424 kts 211°
2026-04-07 17:29 19.20013 -21.35854 36098 ft 424 kts 211°
2026-04-07 17:29 19.14612 -21.38351 36077 ft 423 kts 211°
2026-04-07 17:30 19.09250 -21.40827 36096 ft 423 kts 211°
2026-04-07 17:30 19.03860 -21.43315 36097 ft 423 kts 211°
2026-04-07 17:31 18.98466 -21.45804 36091 ft 423 kts 211°
2026-04-07 17:31 18.93074 -21.48289 36092 ft 423 kts 211°
2026-04-07 17:32 18.87668 -21.50779 36090 ft 424 kts 211°
2026-04-07 17:32 18.82259 -21.53268 36057 ft 424 kts 211°
2026-04-07 17:33 18.76867 -21.55748 36090 ft 423 kts 211°
2026-04-07 17:33 18.71473 -21.58228 36085 ft 423 kts 211°
2026-04-07 17:34 18.66084 -21.60703 36089 ft 423 kts 211°
2026-04-07 17:34 18.60691 -21.63179 36083 ft 423 kts 211°
2026-04-07 17:35 18.55297 -21.65653 36086 ft 423 kts 211°
2026-04-07 17:35 18.49904 -21.68125 36086 ft 423 kts 211°
2026-04-07 17:36 18.44513 -21.70594 36077 ft 422 kts 211°
2026-04-07 17:36 18.39125 -21.73060 36083 ft 422 kts 211°
2026-04-07 17:37 18.33735 -21.75526 36082 ft 422 kts 211°
2026-04-07 17:37 18.28346 -21.77989 36080 ft 422 kts 211°
2026-04-07 17:38 18.22957 -21.80451 36082 ft 422 kts 211°
2026-04-07 17:38 18.17561 -21.82914 36077 ft 423 kts 211°
2026-04-07 17:39 18.12164 -21.85376 36073 ft 423 kts 211°
2026-04-07 17:39 18.06755 -21.87842 36074 ft 423 kts 211°
2026-04-07 17:40 18.01354 -21.90302 36072 ft 423 kts 211°
2026-04-07 17:40 17.95947 -21.92764 36074 ft 423 kts 211°
2026-04-07 17:41 17.90542 -21.95223 36071 ft 423 kts 211°
2026-04-07 17:41 17.85137 -21.97680 36071 ft 423 kts 211°
2026-04-07 17:42 17.79765 -22.00121 36047 ft 424 kts 211°
2026-04-07 17:42 17.74309 -22.02598 36069 ft 424 kts 211°
2026-04-07 17:43 17.68927 -22.05040 36066 ft 424 kts 211°
2026-04-07 17:43 17.63512 -22.07496 36071 ft 424 kts 211°
2026-04-07 17:44 17.58092 -22.09952 36074 ft 424 kts 211°
2026-04-07 17:44 17.52676 -22.12404 36073 ft 424 kts 211°
2026-04-07 17:44 17.49963 -22.13633 35954 ft 424 kts 211°
2026-04-07 17:45 17.47257 -22.14857 35709 ft 424 kts 211°
2026-04-07 17:45 17.44543 -22.16085 35483 ft 425 kts 211°
2026-04-07 17:45 17.41824 -22.17314 35264 ft 426 kts 211°
2026-04-07 17:45 17.39105 -22.18543 34801 ft 424 kts 211°
2026-04-07 17:46 17.36366 -22.19782 33682 ft 434 kts 211°
2026-04-07 17:46 17.33585 -22.21037 32532 ft 434 kts 211°
2026-04-07 17:46 17.30837 -22.22277 31727 ft 424 kts 211°
2026-04-07 17:46 17.28157 -22.23487 31082 ft 416 kts 211°
2026-04-07 17:47 17.25474 -22.24700 30334 ft 426 kts 210°
2026-04-07 17:47 17.22738 -22.25933 29512 ft 430 kts 210°
2026-04-07 17:47 17.19987 -22.27174 28779 ft 432 kts 210°
2026-04-07 17:47 17.17226 -22.28418 28173 ft 432 kts 210°
2026-04-07 17:48 17.14471 -22.29660 27529 ft 430 kts 210°
2026-04-07 17:48 17.11733 -22.30894 26870 ft 427 kts 210°
2026-04-07 17:48 17.09011 -22.32120 26246 ft 424 kts 210°
2026-04-07 17:48 17.06313 -22.33335 25621 ft 420 kts 209°
2026-04-07 17:49 17.03631 -22.34542 24997 ft 418 kts 209°
2026-04-07 17:49 17.00965 -22.35742 24378 ft 417 kts 209°
2026-04-07 17:49 16.98305 -22.36938 23760 ft 416 kts 209°
2026-04-07 17:49 16.95650 -22.38132 23055 ft 415 kts 209°
2026-04-07 17:50 16.93002 -22.39323 22402 ft 412 kts 208°
2026-04-07 17:50 16.90378 -22.40502 21786 ft 409 kts 208°
2026-04-07 17:50 16.87775 -22.41672 21197 ft 406 kts 208°
2026-04-07 17:50 16.85186 -22.42835 20612 ft 404 kts 208°
2026-04-07 17:51 16.82613 -22.43990 20032 ft 401 kts 208°
2026-04-07 17:51 16.80056 -22.45138 19457 ft 399 kts 208°
2026-04-07 17:51 16.77506 -22.46282 18883 ft 398 kts 207°
2026-04-07 17:51 16.74968 -22.47421 18317 ft 396 kts 207°
2026-04-07 17:52 16.72441 -22.48554 17696 ft 395 kts 207°
2026-04-07 17:52 16.69926 -22.49682 17125 ft 392 kts 207°
2026-04-07 17:52 16.67434 -22.50799 16590 ft 389 kts 207°
2026-04-07 17:52 16.64993 -22.51893 16064 ft 386 kts 207°
2026-04-07 17:53 16.62538 -22.52993 15541 ft 383 kts 206°
2026-04-07 17:53 16.57676 -22.55170 14529 ft 378 kts 206°
2026-04-07 17:53 16.55273 -22.56247 14034 ft 375 kts 207°
2026-04-07 17:54 16.52880 -22.57318 13505 ft 373 kts 207°
2026-04-07 17:54 16.50507 -22.58380 12995 ft 370 kts 206°
2026-04-07 17:54 16.48159 -22.59430 12508 ft 366 kts 206°
2026-04-07 17:54 16.45830 -22.60472 12039 ft 362 kts 206°
2026-04-07 17:55 16.43523 -22.61503 11596 ft 359 kts 205°
2026-04-07 17:55 16.41238 -22.62524 11224 ft 354 kts 205°
2026-04-07 17:55 16.39011 -22.63518 11037 ft 343 kts 204°
2026-04-07 17:55 16.36848 -22.64484 10868 ft 333 kts 204°
2026-04-07 17:56 16.34753 -22.65420 10692 ft 323 kts 204°
2026-04-07 17:56 16.32715 -22.66330 10538 ft 314 kts 204°
2026-04-07 17:56 16.30736 -22.67214 10375 ft 305 kts 204°
2026-04-07 17:56 16.28814 -22.68071 10240 ft 296 kts 203°
2026-04-07 17:57 16.26948 -22.68904 10087 ft 288 kts 203°
2026-04-07 17:57 16.25114 -22.69722 9798 ft 286 kts 203°
2026-04-07 17:57 16.23291 -22.70535 9460 ft 285 kts 203°
2026-04-07 17:57 16.21474 -22.71346 9148 ft 283 kts 203°
2026-04-07 17:58 16.19674 -22.72148 8849 ft 281 kts 203°
2026-04-07 17:58 16.18489 -22.72677 8645 ft 280 kts 202°
2026-04-07 17:58 16.16098 -22.73743 8197 ft 279 kts 203°
2026-04-07 17:58 16.14919 -22.74268 7995 ft 278 kts 202°
2026-04-07 17:59 16.13149 -22.75056 7699 ft 277 kts 203°
2026-04-07 17:59 16.11367 -22.75850 7401 ft 281 kts 202°
2026-04-07 17:59 16.09555 -22.76657 7100 ft 285 kts 202°
2026-04-07 17:59 16.07721 -22.77473 6783 ft 287 kts 202°
2026-04-07 18:00 16.05884 -22.78292 6475 ft 287 kts 202°
2026-04-07 18:00 16.04053 -22.79106 6144 ft 286 kts 202°
2026-04-07 18:00 16.02223 -22.79921 5808 ft 285 kts 201°
2026-04-07 18:00 16.00405 -22.80729 5504 ft 284 kts 202°
2026-04-07 18:01 15.98593 -22.81536 5192 ft 282 kts 202°
2026-04-07 18:01 15.96793 -22.82335 4891 ft 281 kts 202°
2026-04-07 18:01 15.94998 -22.83134 4569 ft 280 kts 202°
2026-04-07 18:01 15.93221 -22.83957 4305 ft 279 kts 207°
2026-04-07 18:02 15.91785 -22.85272 4098 ft 274 kts 236°
2026-04-07 18:02 15.91060 -22.87052 3928 ft 264 kts 262°
2026-04-07 18:02 15.91115 -22.88897 3823 ft 250 kts 285°
2026-04-07 18:02 15.91519 -22.90616 3721 ft 241 kts 287°
2026-04-07 18:03 15.91953 -22.92264 3584 ft 232 kts 294°
2026-04-07 18:03 15.92825 -22.93572 3471 ft 214 kts 325°
2026-04-07 18:03 15.94084 -22.94203 3344 ft 197 kts 355°
2026-04-07 18:03 15.95383 -22.94190 3276 ft 183 kts 15°
2026-04-07 18:04 15.96565 -22.93934 3304 ft 166 kts 17°
2026-04-07 18:04 15.97679 -22.93665 3087 ft 164 kts 18°
2026-04-07 18:04 15.98781 -22.93376 2868 ft 162 kts 18°
2026-04-07 18:04 15.99844 -22.93085 2740 ft 153 kts 19°
2026-04-07 18:05 16.00838 -22.92801 2560 ft 143 kts 21°
2026-04-07 18:05 16.01767 -22.92523 2254 ft 134 kts 19°
2026-04-07 18:05 16.02653 -22.92252 1991 ft 134 kts 19°
2026-04-07 18:05 16.03514 -22.91990 1983 ft 125 kts 18°
2026-04-07 18:06 16.04340 -22.91762 1752 ft 124 kts 17°
2026-04-07 18:06 16.05192 -22.91538 1622 ft 130 kts 16°
2026-04-07 18:06 16.06054 -22.91285 1579 ft 125 kts 18°
2026-04-07 18:06 16.06857 -22.91027 1335 ft 120 kts 19°
2026-04-07 18:07 16.07694 -22.90768 1187 ft 129 kts 17°
2026-04-07 18:07 16.08558 -22.90492 1009 ft 131 kts 20°
2026-04-07 18:07 16.09427 -22.90199 789 ft 133 kts 17°
2026-04-07 18:07 16.10318 -22.89932 619 ft 131 kts 18°
2026-04-07 18:08 16.11174 -22.89652 466 ft 130 kts 18°
2026-04-07 18:08 16.12033 -22.89386 269 ft 125 kts 19°
2026-04-07 18:08 16.12842 -22.89133 108 ft 120 kts 18°
2026-04-07 18:08 16.13576 -22.88907 85 ft 84 kts 17°
2026-04-07 18:09 16.13925 -22.88799 93 ft 30 kts 16°
2026-04-07 18:09 16.14018 -22.88760 92 ft 7 kts 53°
2026-04-07 18:09 16.14045 -22.88763 93 ft 4 kts 285°
2026-04-07 18:09 16.14019 -22.88780 93 ft 8 kts 187°
2026-04-07 18:10 16.13946 -22.88793 91 ft 13 kts 193°
2026-04-07 18:10 16.13847 -22.88824 89 ft 17 kts 197°
2026-04-07 18:10 16.13738 -22.88857 86 ft 17 kts 195°
2026-04-07 18:10 16.13643 -22.88884 86 ft 9 kts 195°
2026-04-07 18:11 16.13602 -22.88921 82 ft 9 kts 263°
2026-04-07 18:11 16.13612 -22.88971 81 ft 8 kts 283°
2026-04-07 18:11 16.13585 -22.89007 72 ft 5 kts 220°
2026-04-07 18:11 16.13587 -22.89051 77 ft 8 kts 286°
2026-04-07 18:12 16.13596 -22.89090 72 ft 2 kts 283°
2026-04-07 18:12 16.13599 -22.89101 74 ft 0 kts 283°